sat.trackr.live / text

‹ back to catalog

STARLINK-30354

NORAD 57772 · 2023-134B

PAYLOAD ACTIVE UNKNOWN

§ Identity

Operator
Country
US
Launch date
2023-09-04
Launch site
AFETR
Launch vehicle
Mass (kg)
RCS (m²)

Purposes: comms

External: N2YO · Heavens-Above · Gunter

§ Orbital elements

Epoch: 2026-05-25T05:08:01.806720Z

Period
94.27 min
Inclination
43.0035°
Eccentricity
0.0001681
Mean motion
15.27579853 rev/d
Perigee alt
481.9 km
Apogee alt
484.2 km
Semi-major
6,861.2 km
B*
3.1187e-5
RAAN
125.4292°
Arg perigee
282.5486°
Mean anomaly
77.5177°
Rev number
15,117

§ Raw data

STARLINK-303541 57772U 23134B   26145.21390980  .00000596  00000+0  31187-4 0  99942 57772  43.0035 125.4292 0001681 282.5486  77.5177 15.27579853151172

JSON: /api/v1/satellites/57772 · /tle

For live sub-satellite position, see the globe view (requires WebGL).

§ Visibility from observer

Set your observer location to see the next 7 days of passes ≥ 10°. The values pass through the URL so the page stays shareable.

No JS? Fill the form by hand. The geolocation button needs JavaScript.